SCP
0 0 0 0 0 0 0 0 0 0 0 0 0 0 0 0 0 0 0 0 0 0 0 0 0 0 0 0 0 0 0 0 0 0 0 0 0 0 0 0 0 0 0 0
0 0 0 0 0 0 0 0 0 0 0 0 0 0 0 0 0 0 0 0 0 0 0 0 0 0 0 0 0 0 0 0 0 0 0 0 0 0 0 0 0 0 0 0
0 0 0 0 0 0 0 0 0 0 0 0 0 0 0 0 0 0 0 0 0 0 0 0 0 0 0 0 0 0 0 0 0 0 0 0 0 0 0 0 0 0 0 0
0 0 0 0 0 0 0 0 0 0 0 0 0 0 0 0 0 0 0 0 0 0 0 0 0 0 0 0 0 0 0 0 0 0 0 0 0 0 0 0 0 0 0 0
0 0 0 0 0 0 0 0 0 0 0 0 0 0 0 0 0 0 0 0 0 0 0 0 0 0 0 0 0 0 0 0 0 0 0 0 0 0 0 0 0 0 0 0
0 0 0 0 0 0 0 0 0 0 0 0 0 0 0 0 0 0 0 0 0 0 0 0 0 0 0 0 0 0 0 0 0 0 0 0 0 0 0 0 0 0 0 0
0 0 0 0 0 0 0 0 0 0 0 0 0 0 0 0 0 0 0 0 0 0 0 0 0 0 0 0 0 0 0 0 0 0 0 0 0 0 0 0 0 0 0 0
0 0 0 0 0 0 0 0 0 0 0 0 0 0 0 0 0 0 0 0 0 0 0 0 0 0 0 0 0 0 0 0 0 0 0 0 0 0 0 0 0 0 0 0
0 0 0 0 0 0 0 0 0 0 0 0 0 0 0 0 0 0 0 0 0 0 0 0 0 0 0 0 0 0 0 0 0 0 0 0 0 0 0 0 0 0 0 0
0 0 0 0 0 0 0 0 0 0 0 0 0 0 0 0 0 0 0 0 0 0 0 0 0 0 0 0 0 0 0 0 0 0 0 0 0 0 0 0 0 0 0 0
0 0 0 0 0 0 0 0 0 0 0 0 0 0 0 0 0 0 0 0 0 0 0 0 0 0 0 0 0 0 0 0 0 0 0 0 0 0 0 0 0 0 0 0
0 0 0 0 0 0 0 0 0 0 0 0 0 0 0 0 0 0 0 0 0 0 0 0 0 0 0 0 0 0 0 0 0 0 0 0 0 0 0 0 0 0 0 0
0 0 0 0 0 0 0 0 0 0 0 0 0 0 0 0 0 0 0 0 0 0 0 0 0 0 0 0 0 0 0 0 0 0 0 0 0 0 0 0 0 0 0 0
0 0 0 0 0 0 0 0 0 0 0 0 0 0 0 0 0 0 0 0 0 0 0 0 0 0 0 0 0 0 0 0 0 0 0 0 0 0 0 0 0 0 0 0
0 0 0 0 0 0 0 0 0 0 0 0 0 0 -0 0 0 0 0 0 0 0 0 0 0 0 0 0 0 0 0 0 0 0 0 0 0 0 0 0 0 0 0 0
0 0 0 0 0 0 0 0 0 0 0 0 0 -0 -0 0 0 0 0 0 0 0 0 0 0 0 0 0 0 0 0 0 0 0 0 0 0 0 0 0 0 0 0 0
0 0 0 0 0 0 0 0 0 0 0 0 0 -0 0 0 0 0 0 0 0 0 0 0 0 0 0 0 0 0 0 0 0 0 0 0 0 0 0 0 0 0 0 0
0 0 0 0 0 0 0 0 0 0 0 0 0 0 0 0 0 0 0 0 0 0 0 0 0 0 0 0 0 0 0 0 0 0 0 0 0 0 0 0 0 0 0 0
0 0 0 0 0 0 0 0 0 0 0 0 0 0 0 0 0 0 0 0 0 0 0 0 0 0 0 0 0 0 0 0 0 0 0 0 0 0 0 0 0 0 0 0
0 0 0 0 0 0 0 0 0 0 0 0 0 0 0 0 0 0 0 0 0 0 0 0 0 0 0 0 0 0 0 0 0 0 0 0 0 0 0 0 0 0 0 0
0 0 0 0 0 0 0 0 0 0 0 0 0 0 0 0 0 0 0 0 0 0 0 0 0 0 0 0 0 0 0 0 0 0 0 0 0 0 0 0 0 0 0 0
0 0 0 0 0 0 0 0 0 0 0 0 0 0 0 0 0 0 0 0 0 0 0 0 0 0 0 0 0 0 0 0 0 0 0 0 0 0 0 0 0 0 0 0
0 0 0 0 0 0 0 0 0 0 0 0 0 0 0 0 0 0 0 0 0 0 0 0 0 0 0 0 0 0 0 0 0 0 0 0 0 0 0 0 0 0 0 0
0 0 0 0 0 0 0 0 0 0 0 0 0 0 0 0 0 0 0 0 0 0 0 0 0 0 0 0 0 0 0 0 0 0 0 0 0 0 0 0 0 0 0 0
0 0 0 0 0 0 0 0 0 0 0 0 0 0 0 0 0 0 0 0 0 0 0 0 0 0 0 0 0 0 0 0 0 0 0 0 0 0 0 0 0 0 0 0
0 0 0 0 0 0 0 0 0 0 0 0 0 0 -0 -0 -0 0 0 0 0 0 0 0 0 0 0 0 0 0 0 0 0 0 0 0 0 0 0 0 0 0 0 0
Wind_Speed
0 3 4 5 6 5 4 6 7 5 3 6 11 13 11 8 8 8 8 7 7 6 4 4 4 4 4 4 4 4 4 3 3 2 2 2 2 1 1 1 1 1 1 1
2 4 3 3 4 5 6 7 7 5 3 6 9 14 11 9 10 9 9 8 7 6 5 4 4 4 4 4 4 4 4 4 4 2 2 1 1 1 1 1 1 1 1 1
3 1 2 3 4 5 7 8 7 6 5 5 8 11 8 6 7 8 8 7 7 7 7 6 5 5 4 4 4 4 4 4 4 3 2 2 1 1 1 1 1 1 1 2
3 2 1 3 4 5 6 5 6 6 6 5 5 8 6 6 7 8 8 7 7 6 6 6 5 5 5 4 4 4 4 4 4 4 4 4 3 2 2 2 1 1 1 2
2 2 3 4 4 5 3 2 4 5 6 7 6 8 7 5 8 8 8 7 6 5 5 5 5 5 5 4 4 4 4 4 4 5 5 5 4 3 2 2 2 1 1 1
2 1 2 3 2 3 2 2 2 3 4 8 7 8 7 5 6 5 5 4 4 3 4 4 4 4 4 3 3 4 4 4 4 4 5 5 5 4 3 3 2 2 1 1
2 2 1 1 1 2 2 3 3 4 5 6 2 7 9 3 3 4 4 3 2 2 3 4 4 4 4 4 4 4 4 4 4 4 5 5 4 4 4 4 3 2 2 1
3 3 3 2 3 3 4 4 4 4 4 3 4 9 5 2 2 3 2 2 1 2 2 3 4 4 4 4 4 4 4 4 4 4 4 4 4 3 3 3 3 3 2 2
3 2 1 1 2 3 4 5 3 3 3 5 5 6 6 2 2 2 1 1 1 2 2 3 3 3 4 4 4 4 4 4 4 4 4 4 4 3 3 3 3 2 2 2
2 4 2 1 1 1 3 1 3 4 4 6 5 6 4 2 2 2 2 3 2 1 1 2 2 3 3 3 3 3 3 4 4 4 4 3 4 3 3 3 3 3 3 3
3 3 2 2 4 5 3 3 3 3 4 5 5 3 1 3 3 3 3 3 3 2 2 2 2 2 2 2 3 3 3 3 3 4 4 4 4 3 3 3 3 3 3 3
2 3 4 4 2 3 4 4 5 4 4 5 5 5 2 3 4 4 4 3 2 2 2 2 2 2 2 2 2 3 3 3 3 3 3 4 3 3 4 3 3 3 3 3
2 3 3 3 3 2 4 4 4 4 3 5 6 6 2 2 4 4 4 3 2 3 3 2 3 3 2 2 2 2 3 3 3 3 4 4 4 4 4 4 3 3 3 3
2 3 6 7 4 2 5 5 6 6 6 7 10 11 8 7 7 6 4 4 3 3 3 3 3 3 3 3 2 2 2 2 3 3 4 4 4 4 4 4 3 3 3 3
2 4 5 7 7 6 7 8 9 11 10 10 11 13 13 11 10 8 6 5 5 4 4 4 5 4 4 3 3 2 2 2 3 3 4 4 4 4 4 4 4 4 3 3
2 4 4 7 7 7 9 11 12 13 13 15 15 16 13 12 9 9 8 6 6 5 5 5 5 5 5 4 4 3 3 3 3 3 3 3 3 3 4 4 4 4 3 3
3 3 4 6 4 6 11 10 12 9 10 10 13 13 9 9 9 8 7 6 6 6 6 5 5 5 5 5 4 4 3 3 3 3 3 3 3 3 3 4 4 4 3 3
5 4 3 4 3 10 5 1 7 9 10 11 11 11 10 10 9 7 7 7 7 7 6 5 5 5 4 4 3 3 3 3 3 4 3 3 3 3 3 3 4 4 3 3
7 6 4 4 6 10 6 3 4 7 9 8 11 11 9 8 7 6 5 6 7 7 6 5 4 4 3 3 3 3 3 3 3 4 4 4 4 4 4 4 4 4 3 3
4 5 5 5 7 8 3 1 1 4 7 4 6 8 7 5 5 4 4 5 6 6 5 4 3 3 3 3 2 3 4 4 4 4 4 4 4 4 5 5 4 3 3 3
4 5 8 8 8 8 3 1 4 5 4 2 5 6 5 5 5 5 6 6 5 5 4 3 2 2 2 2 3 4 4 5 4 3 3 4 4 5 5 4 4 3 3 3
7 7 7 7 8 9 2 5 6 4 3 3 4 5 5 6 6 5 5 5 5 4 3 3 2 2 2 2 3 4 4 3 3 3 3 4 4 3 3 4 4 4 4 4
7 6 5 7 7 3 3 5 5 4 4 5 5 6 5 6 6 6 5 5 5 5 4 3 3 3 2 2 3 4 3 2 2 3 3 3 3 3 4 4 4 4 4 3
5 3 5 6 8 7 7 7 7 6 6 6 6 7 6 6 6 6 6 5 5 5 4 3 3 3 3 3 3 3 3 2 3 4 3 3 3 3 4 3 4 4 4 4
5 5 6 9 9 7 7 7 8 7 6 6 6 6 6 6 6 6 6 6 5 4 4 3 4 4 4 4 3 3 3 3 4 4 3 3 3 4 3 3 3 4 4 4
6 7 7 7 6 6 7 6 6 6 7 7 7 7 6 6 6 6 6 5 5 5 4 4 4 4 5 4 4 3 3 3 4 3 4 3 3 3 3 3 2 3 4 5
Wind_Direction
116 208 218 222 231 262 247 242 256 271 287 262 256 264 265 256 247 243 238 237 234 234 229 210 206 202 198 194 198 201 195 191 189 191 194 193 200 204 200 214 229 234 251 250
188 234 253 247 226 230 233 245 259 272 282 272 275 273 267 251 235 235 237 237 236 229 219 207 202 198 199 195 197 198 198 195 197 198 199 205 205 212 217 214 222 231 246 241
227 324 235 218 216 227 243 246 254 268 291 256 281 268 236 228 232 234 237 237 233 228 222 211 207 203 202 198 201 202 198 197 197 191 178 165 177 202 208 218 226 238 245 242
248 252 221 223 234 238 248 252 253 257 270 267 271 278 242 221 228 231 234 232 230 227 223 215 213 210 209 206 201 203 200 198 196 192 188 186 195 206 220 222 228 236 242 243
237 266 239 238 248 241 255 272 250 256 257 267 239 255 259 215 234 231 229 227 228 227 223 218 216 215 208 200 194 194 195 198 197 199 202 202 204 208 204 204 209 211 234 243
270 288 278 266 279 237 194 200 224 229 238 249 236 243 264 222 237 239 232 235 234 225 220 220 214 205 195 187 184 185 188 195 197 201 207 211 208 204 199 203 206 215 217 228
246 211 211 255 192 157 214 215 222 218 220 241 208 241 257 272 266 270 267 254 238 228 217 210 205 199 193 189 186 186 188 194 197 199 208 214 213 209 209 208 209 208 211 230
242 240 196 234 241 223 213 233 241 248 247 256 212 239 258 332 310 281 259 242 242 227 227 220 210 203 195 190 190 191 195 200 200 200 206 207 202 206 210 209 210 210 212 220
245 258 34 291 299 234 197 218 268 274 280 267 239 259 278 259 258 246 229 221 236 237 241 232 211 201 192 190 196 197 200 204 203 202 204 202 199 200 203 207 212 212 209 209
248 258 273 312 235 256 287 203 198 221 238 248 251 252 264 273 251 234 238 234 234 246 249 235 211 200 199 197 196 196 198 207 209 205 202 204 204 205 205 206 208 213 212 205
235 240 254 224 225 225 187 195 225 233 260 258 258 254 281 270 292 274 259 251 241 238 243 236 218 205 199 196 194 194 196 201 203 202 200 201 203 202 205 210 208 210 213 211
223 240 249 249 291 308 247 228 211 231 233 245 266 273 30 291 293 285 280 269 254 245 235 226 217 205 199 199 200 201 202 202 203 201 199 204 201 199 205 212 209 207 209 210
191 204 239 222 191 205 238 232 235 250 243 234 244 261 59 305 294 291 286 280 259 249 238 230 228 222 214 213 211 211 212 209 202 196 199 202 201 201 206 212 210 208 206 205
220 217 235 253 280 218 237 240 226 224 234 241 246 265 277 291 300 302 291 278 269 257 244 241 240 239 232 229 226 227 227 222 210 199 201 206 205 204 206 209 211 211 210 209
223 241 244 262 268 262 254 246 230 229 238 246 260 264 274 284 290 294 290 278 274 271 258 248 246 245 241 238 237 235 228 223 211 204 206 211 210 206 203 205 209 209 210 217
227 247 254 260 258 260 265 252 240 241 245 250 264 270 278 285 289 287 282 277 275 274 269 262 256 251 246 241 237 230 224 219 210 210 214 209 205 203 204 205 202 199 201 207
210 214 240 259 268 268 257 236 222 228 232 237 251 266 285 288 286 285 286 276 271 272 271 265 259 251 246 243 236 231 226 212 209 215 219 212 205 203 204 201 199 199 200 204
207 213 240 262 252 243 259 212 222 231 245 242 256 272 278 281 290 287 281 275 274 278 274 269 264 257 251 247 236 226 218 210 210 215 218 215 208 206 203 204 208 207 203 205
218 213 226 235 251 266 265 235 219 228 255 247 252 266 281 296 290 279 289 282 278 281 279 272 264 256 248 240 228 213 215 215 217 219 219 216 210 206 204 208 210 208 203 205
208 214 228 229 245 252 272 165 213 224 257 251 245 262 280 289 276 298 334 317 300 295 290 285 279 263 241 233 213 210 221 220 226 227 225 219 213 210 210 212 212 209 205 207
190 208 222 232 245 261 283 192 176 220 275 300 259 258 255 254 277 312 322 317 310 304 299 293 275 256 242 227 210 219 229 232 237 234 226 221 217 215 213 209 209 205 203 203
204 205 210 215 234 250 163 163 208 264 323 299 286 278 269 280 291 298 308 313 316 314 307 294 276 273 267 236 220 230 239 242 240 229 223 222 220 215 209 203 204 204 200 202
224 222 220 218 237 295 196 226 269 291 284 289 294 292 286 284 284 292 299 305 305 301 298 288 271 275 278 254 232 238 247 236 227 223 223 223 219 215 209 205 203 203 203 205
236 237 242 255 262 272 267 270 281 280 278 286 286 284 275 275 283 289 292 297 297 293 287 284 275 273 278 272 258 251 253 236 220 223 224 218 213 212 209 207 206 207 206 208
250 217 239 257 272 283 269 266 277 282 285 286 284 275 270 269 276 280 283 286 288 287 285 278 268 268 274 278 271 266 252 231 224 224 224 220 218 213 209 212 212 216 219 216
227 222 229 250 259 260 275 289 286 279 282 283 283 280 273 262 267 275 277 280 281 281 281 278 276 273 275 273 269 263 244 229 219 221 222 220 214 210 209 209 218 223 229 224